Menomonie, WI

9:20 PM CST on December 15, 2019 (GMT -0600)
Menomonie

Weather History for KLUM - October, 2019

Change the Weather History Date:

Friday, October 11, 2019

  Actual Average (KEAU) Record (KEAU)
Temperature  
Mean Temperature 45 °F -  
Max Temperature 59 °F 60 °F 85 °F (1930)
Min Temperature 32 °F 38 °F 19 °F (1987)
Degree Days  
Heating Degree Days 20    
Moisture  
Dew Point 32 °F    
Average Humidity 81    
Maximum Humidity 100    
Minimum Humidity 59    
Precipitation  
Precipitation 0.00 in - - ()
Sea Level Pressure  
Sea Level Pressure 29.77 in    
Wind  
Wind Speed 14 mph (SSW)    
Max Wind Speed 23 mph    
Max Gust Speed 30 mph    
Visibility 9 miles    
Events Rain , Snow , Thunderstorm    
Averages and records for this station are not official NWS values.
T = Trace of Precipitation, MM = Missing Value Source: NWS Daily Summary

Daily Weather History Graph

Daily Weather History Graph

Search for Another Location

Airport or City:

Astronomy

Oct. 11, 2019 Rise Set
Actual Time 7:17 AM CDT 6:30 PM CDT
Civil Twilight 6:48 AM CDT 6:59 PM CDT
Nautical Twilight 6:14 AM CDT 7:33 PM CDT
Astronomical Twilight 5:40 AM CDT 8:07 PM CDT
Moon 6:07 PM CDT (10/11) 4:49 AM CDT (10/11)
Length of Visible Light 12h 11m
Length of Day
11h 12m
Waxing Gibbous, 96% of the Moon is Illuminated
Oct 11
Waxing Gibbous
Oct 13
Full
Oct 21
Last Quarter
Oct 27
New
Nov 4
First Quarter

Hourly Weather History & Observations

Time (CDT) Temp. Windchill Dew Point Humidity Pressure Visibility Wind Dir Wind Speed Gust Speed Precip Events Conditions
12:15 AM 57.7 °F - 57.6 °F 99% 29.69 in 3.0 mi ESE 9.2 mph - N/A Rain , Thunderstorm Rain
12:35 AM 57.7 °F - 57.6 °F 99% 29.68 in 2.5 mi ESE 13.8 mph - N/A   Overcast
12:55 AM 58.1 °F - 58.1 °F 100% 29.68 in 2.5 mi ESE 11.5 mph 16.1 mph N/A Thunderstorm Overcast
1:15 AM 58.1 °F - 58.1 °F 100% 29.67 in 3.0 mi ESE 10.4 mph - N/A Rain Light Rain
1:35 AM 58.5 °F - 58.3 °F 99% 29.66 in 3.0 mi SE 12.7 mph 17.3 mph N/A Rain , Thunderstorm Light Thunderstorms and Rain
1:55 AM 58.6 °F - 58.5 °F 99% 29.66 in 4.0 mi ESE 9.2 mph - N/A Rain , Thunderstorm Light Thunderstorms and Rain
2:15 AM 58.6 °F - 58.5 °F 99% 29.65 in 4.0 mi SSE 10.4 mph - N/A Rain , Thunderstorm Light Thunderstorms and Rain
2:35 AM 47.8 °F - 47.1 °F 97% 29.68 in 10.0 mi WSW 19.6 mph 23.0 mph N/A Thunderstorm Overcast
2:55 AM 42.6 °F 34.9 °F 42.4 °F 99% 29.68 in 4.0 mi WSW 16.1 mph - N/A   Overcast
3:15 AM 41.4 °F 34.7 °F 41.4 °F 100% 29.69 in 3.0 mi SW 11.5 mph - N/A Rain Rain
3:35 AM 39.7 °F 32.3 °F 39.7 °F 100% 29.70 in 5.0 mi SW 12.7 mph - N/A   Light Drizzle
3:55 AM 39.6 °F 31.7 °F 39.6 °F 100% 29.71 in 7.0 mi SW 13.8 mph - N/A Rain Rain
4:15 AM 38.5 °F 29.9 °F 38.5 °F 100% 29.72 in 5.0 mi SW 15.0 mph - N/A   Light Drizzle
4:35 AM 37.4 °F 29.3 °F 37.2 °F 99% 29.72 in 10.0 mi SW 12.7 mph - N/A   Overcast
4:55 AM 37.0 °F 29.8 °F 36.9 °F 99% 29.72 in 10.0 mi SW 10.4 mph - N/A   Overcast
5:15 AM 36.9 °F 29.6 °F 36.9 °F 100% 29.74 in 10.0 mi SSW 10.4 mph 20.7 mph N/A   Overcast
5:35 AM 36.5 °F 27.4 °F 36.5 °F 100% 29.74 in 10.0 mi WSW 15.0 mph 19.6 mph N/A   Overcast
5:55 AM 36.0 °F 26.7 °F 35.6 °F 99% 29.75 in 10.0 mi SW 15.0 mph - N/A   Overcast
6:15 AM 35.8 °F 25.7 °F 35.8 °F 100% 29.76 in 7.0 mi SW 17.3 mph 23.0 mph N/A   Overcast
6:35 AM 35.6 °F 27.1 °F 34.9 °F 97% 29.77 in 7.0 mi WSW 12.7 mph 24.2 mph N/A   Overcast
6:55 AM 35.2 °F 26.6 °F 34.2 °F 96% 29.77 in 10.0 mi SW 12.7 mph 21.9 mph N/A   Overcast
7:15 AM 35.2 °F 27.1 °F 34.0 °F 95% 29.78 in 10.0 mi SW 11.5 mph 20.7 mph N/A   Overcast
7:35 AM 34.7 °F 25.1 °F 32.4 °F 91% 29.79 in 10.0 mi SW 15.0 mph 23.0 mph N/A   Mostly Cloudy
7:55 AM 34.7 °F 25.1 °F 32.0 °F 90% 29.80 in 10.0 mi SW 15.0 mph 20.7 mph N/A   Overcast
8:35 AM 35.1 °F 26.4 °F 32.2 °F 89% 29.81 in 10.0 mi SSW 12.7 mph 16.1 mph N/A   Overcast
8:55 AM 35.6 °F 25.2 °F 32.0 °F 87% 29.80 in 10.0 mi SW 18.4 mph 24.2 mph N/A   Mostly Cloudy
9:15 AM 36.3 °F 26.8 °F 30.9 °F 81% 29.80 in 10.0 mi WSW 16.1 mph 23.0 mph N/A   Scattered Clouds
9:35 AM 34.7 °F 24.0 °F 30.7 °F 85% 29.82 in 10.0 mi SW 18.4 mph - N/A Rain Light Rain
9:55 AM 32.2 °F 23.2 °F 31.5 °F 97% 29.83 in 4.0 mi SW 11.5 mph 19.6 mph N/A Rain Light Rain
10:15 AM 33.8 °F 25.8 °F 32.0 °F 93% 29.82 in 10.0 mi SSW 10.4 mph - N/A   Overcast
10:35 AM 32.5 °F 23.2 °F 32.0 °F 98% 29.82 in 4.0 mi WSW 12.7 mph 18.4 mph N/A Rain Light Rain
10:55 AM 34.9 °F 25.3 °F 32.2 °F 90% 29.81 in 10.0 mi SW 15.0 mph 23.0 mph N/A   Mostly Cloudy
11:15 AM 36.0 °F 24.7 °F 30.7 °F 81% 29.80 in 10.0 mi WSW 21.9 mph 26.5 mph N/A   Overcast
11:55 AM 35.2 °F 26.2 °F 28.2 °F 76% 29.81 in 10.0 mi SW 13.8 mph 27.6 mph N/A   Overcast
12:15 PM 35.6 °F 26.2 °F 27.9 °F 73% 29.82 in 10.0 mi SW 15.0 mph 23.0 mph N/A   Overcast
12:35 PM 35.4 °F 24.0 °F 27.9 °F 74% 29.82 in 10.0 mi SSW 21.9 mph 26.5 mph N/A   Overcast
12:55 PM 35.4 °F 25.6 °F 27.3 °F 72% 29.81 in 10.0 mi SSW 16.1 mph 27.6 mph N/A   Overcast
1:15 PM 35.6 °F 26.2 °F 26.1 °F 68% 29.81 in 10.0 mi SSW 15.0 mph 20.7 mph N/A   Overcast
1:35 PM 36.1 °F 25.2 °F 26.1 °F 67% 29.80 in 10.0 mi SW 20.7 mph 28.8 mph N/A   Overcast
1:55 PM 35.6 °F 24.5 °F 26.1 °F 68% 29.80 in 10.0 mi SSW 20.7 mph - N/A   Overcast
2:35 PM 35.6 °F 24.5 °F 25.0 °F 65% 29.80 in 10.0 mi SSW 20.7 mph 27.6 mph N/A   Overcast
2:55 PM 36.1 °F 25.9 °F 25.9 °F 66% 29.79 in 10.0 mi SSW 18.4 mph 25.3 mph N/A   Overcast
3:15 PM 36.0 °F 25.3 °F 24.4 °F 63% 29.79 in 10.0 mi SSW 19.6 mph 26.5 mph N/A   Overcast
3:35 PM 36.0 °F 26.3 °F 24.8 °F 64% 29.79 in 10.0 mi SSW 16.1 mph 21.9 mph N/A   Overcast
3:55 PM 36.1 °F 25.5 °F 24.3 °F 62% 29.79 in 10.0 mi SSW 19.6 mph 26.5 mph N/A   Overcast
4:15 PM 36.5 °F 27.0 °F 24.1 °F 61% 29.78 in 10.0 mi SSW 16.1 mph 23.0 mph N/A   Overcast
4:35 PM 36.5 °F 25.4 °F 23.5 °F 59% 29.78 in 10.0 mi SW 21.9 mph 29.9 mph N/A   Overcast
4:55 PM 35.8 °F 24.5 °F 24.3 °F 63% 29.78 in 10.0 mi SSW 21.9 mph 29.9 mph N/A   Overcast
5:15 PM 35.6 °F 25.9 °F 23.9 °F 62% 29.78 in 10.0 mi SSW 16.1 mph 27.6 mph N/A   Overcast
5:35 PM 35.6 °F 25.5 °F 24.4 °F 64% 29.78 in 10.0 mi SSW 17.3 mph 27.6 mph N/A   Overcast
5:55 PM 35.2 °F 25.0 °F 24.3 °F 64% 29.78 in 10.0 mi SSW 17.3 mph 29.9 mph N/A   Overcast
6:15 PM 35.1 °F 23.8 °F 24.6 °F 66% 29.78 in 10.0 mi SSW 20.7 mph 26.5 mph N/A   Overcast
6:35 PM 34.9 °F 24.9 °F 24.6 °F 66% 29.78 in 10.0 mi SSW 16.1 mph 28.8 mph N/A   Overcast
6:55 PM 34.9 °F 24.2 °F 24.8 °F 67% 29.78 in 10.0 mi SSW 18.4 mph 25.3 mph N/A   Overcast
7:15 PM 34.7 °F 25.5 °F 25.2 °F 68% 29.78 in 10.0 mi SSW 13.8 mph - N/A   Overcast
7:35 PM 34.9 °F 23.9 °F 24.6 °F 66% 29.78 in 10.0 mi SW 19.6 mph 27.6 mph N/A   Overcast
7:55 PM 34.7 °F 25.1 °F 23.4 °F 63% 29.78 in 10.0 mi SSW 15.0 mph 27.6 mph N/A   Overcast
8:15 PM 34.3 °F 22.6 °F 23.5 °F 65% 29.78 in 10.0 mi SSW 21.9 mph 28.8 mph N/A   Overcast
8:35 PM 34.0 °F 23.0 °F 24.8 °F 69% 29.79 in 10.0 mi SW 18.4 mph 28.8 mph N/A Snow Light Snow
8:55 PM 33.3 °F 22.1 °F 23.9 °F 69% 29.79 in 10.0 mi SW 18.4 mph 27.6 mph N/A   Overcast
9:15 PM 33.1 °F 20.6 °F 23.9 °F 69% 29.80 in 10.0 mi SW 23.0 mph 26.5 mph N/A   Overcast
9:35 PM 32.5 °F 21.2 °F 23.7 °F 70% 29.80 in 10.0 mi SW 18.4 mph 29.9 mph N/A   Overcast
9:55 PM 32.2 °F 21.8 °F 23.9 °F 72% 29.79 in 10.0 mi SW 15.0 mph 23.0 mph N/A   Overcast
10:15 PM 32.4 °F 21.3 °F 24.4 °F 73% 29.78 in 10.0 mi SSW 17.3 mph 27.6 mph N/A   Overcast
10:35 PM 32.0 °F 21.2 °F 23.7 °F 71% 29.79 in 10.0 mi SW 16.1 mph 26.5 mph N/A   Mostly Cloudy
10:55 PM 32.0 °F 20.1 °F 23.7 °F 71% 29.78 in 10.0 mi SSW 19.6 mph 25.3 mph N/A   Mostly Cloudy
11:15 PM 32.0 °F 22.1 °F 24.3 °F 73% 29.77 in 10.0 mi SSW 13.8 mph 23.0 mph N/A   Mostly Cloudy
11:35 PM 32.0 °F 19.8 °F 25.2 °F 76% 29.77 in 10.0 mi SW 20.7 mph 27.6 mph N/A   Overcast
11:55 PM 32.0 °F 20.5 °F 25.3 °F 76% 29.76 in 10.0 mi SSW 18.4 mph 25.3 mph N/A   Overcast